Content
SEND FEEDBACK

Daily
Averages
Monthly
Summary
United States of America

WARDEN, WASHINGTON


Home > North America > United States > Washington
Elevation: 1108 feet     Latitude: 47 01N     Longitude: 119 14W

WEATHER
 
SELECT A DAY
Number of Records: 177,751;   Date Range: 1/1/95 - 8/30/14
 
SHARE

PRINT THIS DATA

[ ← Previous Day ]
WEATHER ALMANAC - JANUARY 23, 2013
[ Next Day → ]
[ °C ]   °F
Weather ElementAverageHighLow
Temperature24.4 °F27 °F (2:52 pm)21 °F (11:52 pm)
Dewpoint19 °F21.2 °F (1:38 pm)17.1 °F (1:52 am)
Humidity80.1 %89 % (10:52 pm)74 % (1:11 pm)
Barometer30.11 in30.24 in (1:52 am)30.01 in (1:11 pm)
Wind Speed2.6 mph9.2 mph (7:52 pm)
Weather ElementAverage
Visibility8 mi
Wind DirectionESE (100.4 °)

Weather ElementTotal
Precipitation---
Heating Degree Days41 (Base 65)
Averaged from 27 records on January 23, 2013
WEATHER CONDITIONS BREAKOUT
WIND DIRECTION BREAKOUT
WEATHER BY HOUR - JANUARY 23, 2013
[ °C ]   °F
Local TimeTemperatureDewpointHumidityBarometerVisibilityWind DirectionWind SpeedGust SpeedPrecipitationEventsConditions
1:52 AM23.0 °F17.1 °F78 %30.24 in10.0 miCalmOvercast
2:52 AM23.0 °F17.1 °F78 %30.24 in10.0 miWNW (300°)3.5 mphOvercast
3:52 AM21.9 °F17.1 °F82 %30.20 in10.0 miNNW (330°)3.5 mphOvercast
4:52 AM21.9 °F17.1 °F82 %30.19 in10.0 miCalmOvercast
5:52 AM21.9 °F17.1 °F82 %30.19 in9.0 miCalmOvercast
6:52 AM21.9 °F18.0 °F85 %30.16 in8.0 miCalmMostly Cloudy
7:00 AM21.2 °F17.6 °F86 %30.10 in9.0 miCalmScattered Clouds
7:09 AM23.0 °F17.6 °F80 %30.10 in9.0 miCalmPartly Cloudy
7:52 AM21.9 °F18.0 °F85 %30.17 in7.0 miCalmClear
8:52 AM24.1 °F18.0 °F77 %30.15 in7.0 miCalmClear
9:52 AM24.1 °F19.0 °F81 %30.12 in7.0 miCalmPartly Cloudy
10:52 AM25.0 °F19.0 °F78 %30.14 in7.0 miSW (220°)5.8 mphOvercast
11:52 AM25.0 °F19.0 °F78 %30.09 in8.0 miCalmOvercast
12:52 PM26.1 °F19.0 °F75 %30.06 in8.0 miCalmOvercast
1:11 PM26.6 °F19.4 °F74 %30.01 in5.0 miWest (270°)3.5 mphRainLight Freezing Rain
1:38 PM26.6 °F21.2 °F80 %30.01 in7.0 miCalmOvercast
1:52 PM26.1 °F19.9 °F78 %30.06 in7.0 miCalm0.00 inOvercast
2:52 PM27.0 °F21.0 °F78 %30.02 in6.0 miCalm0.00 inHaze
3:52 PM27.0 °F21.0 °F78 %30.04 in7.0 miWSW (240°)8.1 mphOvercast
4:52 PM27.0 °F21.0 °F78 %30.04 in8.0 miSW (230°)6.9 mphOvercast
5:52 PM27.0 °F21.0 °F78 %30.02 in9.0 miSSW (200°)5.8 mphOvercast
6:52 PM27.0 °F21.0 °F78 %30.04 in9.0 miSW (230°)8.1 mphOvercast
7:52 PM27.0 °F21.0 °F78 %30.05 in9.0 miSouth (180°)9.2 mphScattered Clouds
8:52 PM26.1 °F21.0 °F81 %30.08 in8.0 miSouth (180°)4.6 mphPartly Cloudy
9:52 PM25.0 °F19.0 °F78 %30.10 in9.0 miSSE (160°)6.9 mphScattered Clouds
10:52 PM21.9 °F19.0 °F89 %30.12 in7.0 miSouth (170°)4.6 mphClear
11:52 PM21.0 °F18.0 °F88 %30.14 in6.0 miCalmClear
Hourly data recorded from KMWH, located miles away from Warden, Washington







STORIES FROM OUR PARTNERS